Other Public Products
Issued by NWS Grand Forks, ND

Home | Current Version | Previous Version | Graphics & Text | Print | Product List | Glossary On
Versions: 1 2 3 4 5 6 7 8 9 10 11 12 13 14 15 16 17 18 19 20 21 22 23 24 25 26 27 28 29 30 31 32 33 34 35 36 37 38 39 40 41 42 43 44 45 46 47 48 49 50
000
FPUS83 KFGF 041931
OPUFGF
PRAIRIE TO PINES WEATHER ROUNDUP
NATIONAL WEATHER SERVICE EASTERN NORTH DAKOTA/GRAND FORKS ND
200 PM CDT TUE AUG 04 2015

 **SATELLITE DATA USED TO AUGMENT SKY COVER AT AUTOMATED STATIONS**
 *****  WEATHER ACROSS EASTERN NORTH DAKOTA  *****

CITY           SKY/WX    TMP DP  RH WIND       PRES   REMARKS
GRAND FORKS    MOSUNNY   74  54  49 NE7       30.01F
GRAND FORKS AF SUNNY     74  55  50 VRB6      30.02S
GRAND CITY NWS   N/A     75 N/A N/A N9          N/A
BUXTON         NOT AVBL
DEVILS LAKE    SUNNY     75  48  38 CALM      30.01S
FARGO          SUNNY     80  50  34 NE12      29.99F
WAHPETON ARPT  CLEAR     79  41  25 N8        29.99S
$$

 *****  WEATHER ACROSS CENTRAL AND WESTERN NORTH DAKOTA  *****

CITY           SKY/WX    TMP DP  RH WIND       PRES   REMARKS
JAMESTOWN      SUNNY     78  51  38 E6        30.00S
BISMARCK       SUNNY     82  55  39 VRB5      29.97F
MINOT          SUNNY     80  49  33 E10       29.97F
MINOT AFB      SUNNY     81  49  32 SE15      29.96F
GARRISON         N/A     80  55  42 E12       29.97F
WILLISTON      SUNNY     85  51  31 SE14      29.93S
DICKINSON      SUNNY     83  57  41 SE13G24   29.95F
HETTINGER      SUNNY     84  58  40 SE13G22   29.97F
$$

 *****  OTHER OBSERVATIONS NORTHEAST NORTH DAKOTA  *****

CITY           SKY/WX    TMP DP  RH WIND       PRES   REMARKS
WALHALLA       FAIR      70  54  56 MISG      30.04F
LANGDON        FAIR      75  54  46 VRB6      30.05S
CAVALIER       FAIR      72  54  53 NE8       30.03F
GRAFTON        FAIR      73  55  53 NE6G13    30.03S
CANDO          FAIR      75  52  43 S3        30.03S
FORT TOTTEN      N/A     78  55  44 NE5       29.95S
ROLLA            N/A     72  54  53 SE8       30.05S
RUGBY          NOT AVBL
 ***** THE ABOVE OBSERVATIONS ARE NON NWS ARE NOT QUALITY
        CONTROLLED AND MAY MIS-REPORT RAIN FOR SNOW...
$$

 *****  OTHER OBSERVATIONS SOUTHEAST NORTH DAKOTA *****

CITY           SKY/WX    TMP DP  RH WIND       PRES   REMARKS
COOPERSTOWN    NOT AVBL
VALLEY CITY    FAIR      77  54  44 E7        30.01S
OAKES            N/A     81  54  39 NE6       29.99F
GWINNER        FAIR      81  52  36 CALM      30.00S
SHEYENNE NWR     N/A     81  52  36 E3        29.95S
BUFFALO        NOT AVBL
WYNDMERE         N/A     79  52  38 NE5         N/A
 ***** THE ABOVE OBSERVATIONS ARE NON NWS ARE NOT QUALITY
       CONTROLLED AND MAY MIS-REPORT RAIN FOR SNOW...
$$

  *****  WEATHER ACROSS NORTHERN MINNESOTA  *****

CITY           SKY/WX    TMP DP  RH WIND       PRES   REMARKS
FLAG ISLAND    SUNNY     63  48  59 NE6       30.03F
WARROAD        SUNNY     64  54  68 E8        30.05R
ROSEAU         SUNNY     70  55  60 CALM      30.03S
HALLOCK        SUNNY     72  52  49 N8        30.03R
THF RVR FALLS  SUNNY     72  50  46 NW6       30.03S
HALSTAD        NOT AVBL
FOSSTON        MOSUNNY   75  52  43 N5        30.03S
BAUDETTE       MOSUNNY   66  51  58 N8        30.03S
WASKISH        MOSUNNY   72  54  53 NW9       30.02R
CROOKSTON      SUNNY     73  55  53 NE7       30.02S
$$
  *****  WEATHER ACROSS CENTRAL AND WEST MINNESOTA  *****

CITY           SKY/WX    TMP DP  RH WIND       PRES   REMARKS
BEMIDJI        PTSUNNY   71  53  53 N13       30.01S
PARK RAPIDS    MOSUNNY   76  50  40 NW13G18   30.00S
WADENA         SUNNY     79  46  31 W10G18    29.99S
DETROIT LAKES  SUNNY     75  50  41 N10       30.02S
MOORHEAD       SUNNY     75  54  46 N7        30.00S
FERGUS FALLS   SUNNY     77  50  38 N5        29.99S
ELBOW LAKE     FAIR      77  52  40 NW7       29.99F
MORRIS MN      SUNNY     81  50  34 N6        29.99S
STAPLES        SUNNY     77  43  29 NW12      29.99S
WHEATON        SUNNY     75  50  41 CALM      30.00F
$$
  *****  WEATHER ELSEWHERE ACROSS MINNESOTA  *****

CITY           SKY/WX    TMP DP  RH WIND       PRES   REMARKS
DULUTH         MOSUNNY   73  50  44 W13G20    29.98S
INTRNTL FALLS  MOSUNNY   64  48  56 NE8       30.03S
ELY            PTSUNNY   63  48  59 N3        30.01S
CLOQUET        PTSUNNY   73  48  40 NW13      29.98S
BRAINERD       MOSUNNY   78  50  37 NW14      29.99S
HIBBING        CLOUDY    67  49  52 NW9       30.00S
ALEXANDRIA     SUNNY     78  48  34 NW10      30.02S
SAINT CLOUD    MOSUNNY   79  51  37 W9        29.98F
MINNEAPOLIS    MOSUNNY   80  51  36 W12       29.99F
$$

  *****  WEATHER ACROSS SOUTH DAKOTA  *****

CITY           SKY/WX    TMP DP  RH WIND       PRES   REMARKS
SIOUX FALLS    CLOUDY    75  61  61 E9        30.00R
BROOKINGS      PTSUNNY   75  61  60 E7        30.02S
WATERTOWN      MOSUNNY   79  53  40 CALM      30.00S
HURON          CLOUDY    80  63  55 SE9       29.96S
SISSETON         N/A     80  54  40 VRB7      29.98S
ABERDEEN       SUNNY     82  56  40 E10       29.98S
MITCHELL       CLOUDY    78  65  63 SE9       29.97S
PIERRE         CLOUDY    80  59  48 E13       29.94S
MOBRIDGE       MOSUNNY   83  64  52 S10       29.94S
RAPID CITY     PTSUNNY   81  62  52 S16G25    29.95F
$$

  *****  SOME WEATHER IN NEARBY STATES *****

CITY           SKY/WX    TMP DP  RH WIND       PRES   REMARKS
GLASGOW MT     MOSUNNY   89  53  29 S17G26    29.84F
GREAT FALLS MT CLOUDY    81  41  24 VRB5      29.94S
CHEYENNE WY    PTSUNNY   76  47  35 W25G31    30.12F
SCOTTSBLUFF NE PTSUNNY   79  56  45 SE12G17   29.99F
OMAHA NE       CLOUDY    73  65  75 SE10      29.95S
DES MOINES IA  CLOUDY    77  59  53 E6        29.99F
DAVENPORT IA   CLOUDY    78  60  53 W12       30.03R
CHICAGO IL     PTSUNNY   81  52  36 W16G22    29.97S
EAU CLAIRE WI  PTSUNNY   78  52  40 W10       29.98S
LA CROSSE WI   MOSUNNY   79  52  38 W9        29.99F
$$

  *****  SOME NATIONAL WEATHER *****

CITY           SKY/WX    TMP DP  RH WIND       PRES   REMARKS
LA GUARDIA NY  MOSUNNY   89  57  33 W14G24    29.83S
RALEIGH NC     MOSUNNY   90  69  50 SE5       29.96F HX  94
ATLANTA GA     MOSUNNY   94  59  31 W8        30.02F HX  93
NEW ORLEANS LA PTSUNNY   86  76  71 SE12      29.97F HX  96
OKLAHOMA CITY  CLOUDY    81  71  71 S8        29.96F
ALBUQUERQUE NM MOSUNNY   86  48  26 VRB6      30.19F
SALT LAKE CITY MOSUNNY   82  53  36 NW6       30.09F
LOS ANGELES CA MOSUNNY   78  65  63 W13       29.94S
BOISE ID       SUNNY     84  50  30 VRB5      29.99F
SEATTLE WA     MOSUNNY   67  54  63 SW6       30.02F
$$

*** WEATHER ACROSS MANITOBA...SASKATCHEWAN AND ONTARIO ***
                ***ONTARIO***

CITY           SKY/WX    TMP DP  RH WIND       PRES   REMARKS
GERALDTON      CLOUDY    59  50  72 NW10      29.92R
THUNDER BAY    PTSUNNY   63  52  67 NW7       29.97R
SIOUX LOOKOUT  CLOUDY    59  52  77 N3        30.03R
TORONTO        PTSUNNY   77  57  50 SW13G20   29.85F
BIG TROUT LK   CLOUDY    61  52  72 NW10      29.97R
PICKLE LAKE    PTSUNNY   64  50  59 CALM      29.99R
DRYDEN         CLOUDY    61  50  67 N6        30.04R
KENORA         PTSUNNY   63  52  67 NE6       30.05S
$$
                *** MANITOBA***

CITY           SKY/WX    TMP DP  RH WIND       PRES   REMARKS
BRANDON        MOSUNNY   73  52  46 VRB6      30.03F
DAUPHIN        MOSUNNY   72  55  56 E6        30.03S
ISLAND LAKE    CLOUDY    59  54  82 W7        30.02S
PILOT MOUND      N/A     72  52  49 S3          N/A
THE PAS        PTSUNNY   70  50  49 N3        30.03R
THOMPSON       CLOUDY    59  52  77 N8        30.05R
WINNIPEG       PTSUNNY   68  54  60 N8        30.05S
LYNN LAKE      CLOUDY    63  52  67 NE6       30.06S
CHURCHILL      CLOUDY    48  45  87 N6        30.09
GILLAM         CLOUDY    55  50  82 N7        30.05R
$$
                ***SASKATCHEWAN***

CITY           SKY/WX    TMP DP  RH WIND       PRES   REMARKS
ESTEVAN        PTSUNNY   82  52  34 E15       29.96F
KINDERSLEY     CLOUDY    72  61  68 E18G25    29.76F
LLOYDMINSTER   LGT RAIN  66  57  72 E14G25    29.84S
PRINCE ALBERT  CLOUDY    68  59  73 E9        29.98R
REGINA         PTSUNNY   81  54  39 SE17G23   29.94F



USA.gov is the U.S. government's official web portal to all federal, state and local government web resources and services.